Location: Muenchen
(48.1800°N, 11.5800°E)
Time: 00:00:57
(UTC+02:00)

ISS - All Passes

Search period start: 01 October 2016 00:00
Search period end: 11 October 2016 00:00
Orbit: 400 x 410 km, 51.6° (Epoch: 01 October)

Date Brightness Start Highest point End Pass type
(mag) Time Alt. Az. Time Alt. Az. Time Alt. Az.
01 Oct - 01:13:37 10° WNW 01:16:54 81° SSW 01:20:11 10° ESE night (unlit)
01 Oct - 02:50:49 10° W 02:52:59 16° SW 02:55:09 10° S night (unlit)
01 Oct - 19:32:27 10° SSW 19:35:03 22° SE 19:37:40 10° E visible
01 Oct - 21:08:01 10° WSW 21:11:16 80° NNW 21:14:33 10° ENE visible
01 Oct - 22:44:51 10° WNW 22:48:01 43° N 22:51:10 10° ENE night (unlit)
02 Oct - 00:21:29 10° WNW 00:24:47 71° NNE 00:28:03 10° ESE night (unlit)
02 Oct - 01:58:14 10° W 02:01:04 27° SW 02:03:53 10° SSE night (unlit)
02 Oct - 18:41:27 10° SSE 18:43:09 14° SE 18:44:51 10° ESE daylight
02 Oct - 20:15:55 10° WSW 20:19:09 70° SSE 20:22:25 10° ENE visible
02 Oct - 21:52:37 10° W 21:55:47 46° N 21:58:57 10° ENE visible
02 Oct - 23:29:22 10° WNW 23:32:36 54° NNE 23:35:50 10° E night (unlit)
03 Oct - 01:05:55 10° WNW 01:09:04 43° SSW 01:12:12 10° SE night (unlit)
03 Oct - 19:23:58 10° SW 19:27:05 43° SSE 19:30:12 10° ENE visible
03 Oct - 21:00:20 10° W 21:03:33 54° NNW 21:06:46 10° ENE visible
03 Oct - 22:37:12 10° WNW 22:40:22 46° N 22:43:33 10° E visible
04 Oct - 00:13:43 10° WNW 00:16:59 69° SSW 00:20:15 10° ESE night (unlit)
04 Oct - 01:51:16 10° WSW 01:53:00 14° SW 01:54:43 10° SSW night (unlit)
04 Oct - 18:32:16 10° SSW 18:35:03 26° SE 18:37:52 10° E daylight
04 Oct - 20:08:06 10° WSW 20:11:20 71° NNW 20:14:37 10° ENE visible
04 Oct - 21:44:58 10° WNW 21:48:07 43° N 21:51:16 10° ENE visible
04 Oct - 23:21:34 10° WNW 23:24:51 80° NNE 23:28:08 10° ESE night (unlit)
05 Oct - 00:58:26 10° W 01:01:03 22° SW 01:03:41 10° SSE night (unlit)
05 Oct - 17:40:58 10° S 17:43:06 16° SE 17:45:14 10° E daylight
05 Oct - 19:15:55 10° WSW 19:19:10 81° SSE 19:22:27 10° ENE visible
05 Oct - 20:52:42 10° W 20:55:50 44° N 20:59:00 10° ENE visible
05 Oct - 22:29:24 10° WNW 22:32:39 59° NNE 22:35:54 10° E visible
06 Oct - 00:06:00 10° WNW 00:09:02 36° SW 00:12:05 10° SE night (unlit)
06 Oct - 18:23:52 10° SW 18:27:02 51° SSE 18:30:14 10° ENE daylight
06 Oct - 20:00:23 10° W 20:03:34 50° N 20:06:46 10° ENE visible
06 Oct - 21:37:12 10° WNW 21:40:23 48° N 21:43:34 10° E visible
06 Oct - 23:13:44 10° WNW 23:16:57 58° SSW 23:20:11 10° SE night (unlit)
07 Oct - 00:51:51 10° WSW 00:52:52 11° SW 00:53:54 10° SSW night (unlit)
07 Oct - 17:32:02 10° SSW 17:34:58 32° SE 17:37:54 10° E daylight
07 Oct - 19:08:04 10° W 19:11:19 63° NNW 19:14:33 10° ENE visible
07 Oct - 20:44:57 10° WNW 20:48:06 43° N 20:51:15 10° ENE visible
07 Oct - 22:21:31 10° WNW 22:24:47 89° SW 22:28:04 10° ESE visible
07 Oct - 23:58:33 10° W 00:00:56 19° SW 00:03:18 10° S night (unlit)
08 Oct - 16:40:31 10° S 16:42:57 20° SE 16:45:22 10° E daylight
08 Oct - 18:15:50 10° WSW 18:19:05 88° NNW 18:22:22 10° ENE daylight
08 Oct - 19:52:39 10° WNW 19:55:48 43° N 19:58:56 10° ENE visible
08 Oct - 21:29:19 10° WNW 21:32:34 66° NNE 21:35:50 10° E visible
08 Oct - 23:05:59 10° W 23:08:54 30° SW 23:11:49 10° SSE night (unlit)
09 Oct - 15:49:44 10° SSE 15:50:58 12° SE 15:52:11 10° ESE daylight
09 Oct - 17:23:41 10° SW 17:26:54 61° SSE 17:30:07 10° ENE daylight
09 Oct - 19:00:18 10° W 19:03:29 47° N 19:06:39 10° ENE visible
09 Oct - 20:37:05 10° WNW 20:40:18 51° NNE 20:43:30 10° E visible
09 Oct - 22:13:37 10° WNW 22:16:49 49° SSW 22:19:58 10° SE visible
10 Oct - 16:31:43 10° SW 16:34:45 38° SSE 16:37:49 10° ENE daylight
10 Oct - 18:07:58 10° W 18:11:10 58° NNW 18:14:24 10° ENE daylight
10 Oct - 19:44:49 10° WNW 19:47:58 44° N 19:51:08 10° E visible
10 Oct - 21:21:21 10° WNW 21:24:38 78° SSW 21:27:53 10° ESE visible
10 Oct - 22:58:38 10° W 23:00:41 16° SW 23:02:43 10° S night (unlit)
